Time,TemperatureF,DewpointF,PressureIn,WindDirection,WindDirectionDegrees,WindSpeedMPH,WindSpeedGustMPH,Humidity,HourlyPrecipIn,Conditions,Clouds,dailyrainin,SolarRadiationWatts/m^2,SoftwareType,DateUTC
2013-03-29 00:02:00,63.0,16.0,30.19,West,261,10.0,15.0,16,-99.99,,,-99.99,0.000000,,2013-03-29 06:02:00,
2013-03-29 00:12:00,62.0,16.0,30.18,West,270,10.0,15.0,16,-99.99,,,-99.99,0.000000,,2013-03-29 06:12:00,
2013-03-29 00:23:00,62.0,16.0,30.18,West,270,10.0,15.0,16,-99.99,,,-99.99,0.000000,,2013-03-29 06:23:00,
2013-03-29 00:32:00,62.0,16.0,30.18,West,270,10.0,15.0,16,-99.99,,,-99.99,0.000000,,2013-03-29 06:32:00,
2013-03-29 00:42:00,62.0,16.0,30.18,West,269,9.0,15.0,16,-99.99,,,-99.99,0.000000,,2013-03-29 06:42:00,
2013-03-29 00:52:00,62.0,16.0,30.18,West,269,9.0,15.0,16,-99.99,,,-99.99,0.000000,,2013-03-29 06:52:00,
2013-03-29 01:03:00,62.0,15.0,30.18,West,261,8.0,10.0,16,-99.99,,,-99.99,0.000000,,2013-03-29 07:03:00,
2013-03-29 01:12:00,62.0,15.0,30.18,West,267,9.0,12.0,15,-99.99,,,-99.99,0.000000,,2013-03-29 07:12:00,
2013-03-29 01:22:00,62.0,15.0,30.18,West,267,9.0,12.0,15,-99.99,,,-99.99,0.000000,,2013-03-29 07:22:00,
2013-03-29 01:32:00,62.0,15.0,30.18,West,270,8.0,10.0,15,-99.99,,,-99.99,0.000000,,2013-03-29 07:32:00,
2013-03-29 01:42:00,62.0,15.0,30.18,West,271,8.0,10.0,15,-99.99,,,-99.99,0.000000,,2013-03-29 07:42:00,
2013-03-29 01:52:00,62.0,15.0,30.18,West,271,8.0,10.0,15,-99.99,,,-99.99,0.000000,,2013-03-29 07:52:00,
2013-03-29 02:02:00,62.0,15.0,30.18,West,270,9.0,12.0,15,-99.99,,,-99.99,0.000000,,2013-03-29 08:02:00,
2013-03-29 02:12:00,62.0,14.0,30.18,West,264,8.0,12.0,15,-99.99,,,-99.99,0.000000,,2013-03-29 08:12:00,
2013-03-29 02:22:00,62.0,14.0,30.18,West,264,8.0,12.0,15,-99.99,,,-99.99,0.000000,,2013-03-29 08:22:00,
2013-03-29 02:32:00,62.0,14.0,30.18,West,264,8.0,12.0,15,-99.99,,,-99.99,0.000000,,2013-03-29 08:32:00,
2013-03-29 02:42:00,61.0,14.0,30.19,WSW,249,12.0,19.0,15,-99.99,,,-99.99,0.000000,,2013-03-29 08:42:00,
2013-03-29 02:53:00,61.0,14.0,30.19,WSW,249,12.0,19.0,15,-99.99,,,-99.99,0.000000,,2013-03-29 08:53:00,
2013-03-29 03:02:00,62.0,14.0,30.18,SW,233,13.0,18.0,15,-99.99,,,-99.99,0.000000,,2013-03-29 09:02:00,
2013-03-29 03:13:00,61.0,14.0,30.18,West,263,9.0,13.0,15,-99.99,,,-99.99,0.000000,,2013-03-29 09:13:00,
2013-03-29 03:22:00,61.0,14.0,30.18,West,263,9.0,13.0,15,-99.99,,,-99.99,0.000000,,2013-03-29 09:22:00,
2013-03-29 03:33:00,61.0,14.0,30.18,West,267,9.0,12.0,15,-99.99,,,-99.99,0.000000,,2013-03-29 09:33:00,
2013-03-29 03:42:00,60.0,14.0,30.18,West,261,10.0,14.0,15,-99.99,,,-99.99,0.000000,,2013-03-29 09:42:00,
2013-03-29 03:52:00,60.0,14.0,30.18,West,261,10.0,14.0,15,-99.99,,,-99.99,0.000000,,2013-03-29 09:52:00,
2013-03-29 04:02:00,60.0,14.0,30.18,West,262,12.0,16.0,16,-99.99,,,-99.99,0.000000,,2013-03-29 10:02:00,
2013-03-29 04:12:00,59.0,14.0,30.18,West,268,9.0,12.0,17,-99.99,,,-99.99,0.000000,,2013-03-29 10:12:00,
2013-03-29 04:22:00,59.0,14.0,30.18,West,268,9.0,12.0,17,-99.99,,,-99.99,0.000000,,2013-03-29 10:22:00,
2013-03-29 04:33:00,59.0,15.0,30.18,West,273,10.0,14.0,17,-99.99,,,-99.99,0.000000,,2013-03-29 10:33:00,
2013-03-29 04:42:00,59.0,15.0,30.17,West,277,10.0,14.0,17,-99.99,,,-99.99,0.000000,,2013-03-29 10:42:00,
2013-03-29 04:53:00,59.0,15.0,30.17,West,277,10.0,14.0,17,-99.99,,,-99.99,0.000000,,2013-03-29 10:53:00,
2013-03-29 05:03:00,59.0,15.0,30.17,West,279,9.0,13.0,17,-99.99,,,-99.99,0.000000,,2013-03-29 11:03:00,
2013-03-29 05:12:00,59.0,15.0,30.18,West,277,9.0,12.0,17,-99.99,,,-99.99,0.000000,,2013-03-29 11:12:00,
2013-03-29 05:23:00,59.0,15.0,30.18,West,277,9.0,12.0,17,-99.99,,,-99.99,0.000000,,2013-03-29 11:23:00,
2013-03-29 05:32:00,59.0,15.0,30.18,West,281,10.0,13.0,17,-99.99,,,-99.99,0.000000,,2013-03-29 11:32:00,
2013-03-29 05:42:00,59.0,15.0,30.18,WNW,284,9.0,12.0,17,-99.99,,,-99.99,0.000000,,2013-03-29 11:42:00,
2013-03-29 05:53:00,59.0,15.0,30.18,WNW,284,9.0,12.0,17,-99.99,,,-99.99,0.000000,,2013-03-29 11:53:00,
2013-03-29 06:02:00,58.0,15.0,30.18,WNW,289,11.0,13.0,18,-99.99,,,-99.99,0.000000,,2013-03-29 12:02:00,
2013-03-29 06:12:00,57.0,15.0,30.18,WNW,288,11.0,13.0,19,-99.99,,,-99.99,0.000000,,2013-03-29 12:12:00,
2013-03-29 06:22:00,57.0,15.0,30.18,WNW,288,11.0,13.0,19,-99.99,,,-99.99,0.000000,,2013-03-29 12:22:00,
2013-03-29 06:32:00,56.0,15.0,30.19,West,262,10.0,12.0,20,-99.99,,,-99.99,0.000000,,2013-03-29 12:32:00,
2013-03-29 06:42:00,56.0,16.0,30.20,West,276,10.0,12.0,20,-99.99,,,-99.99,0.000000,,2013-03-29 12:42:00,
2013-03-29 06:53:00,56.0,16.0,30.20,West,276,10.0,12.0,20,-99.99,,,-99.99,0.000000,,2013-03-29 12:53:00,
2013-03-29 07:03:00,55.0,16.0,30.21,West,265,11.0,13.0,20,-99.99,,,-99.99,0.000000,,2013-03-29 13:03:00,
2013-03-29 07:12:00,55.0,15.0,30.21,WSW,256,11.0,14.0,20,-99.99,,,-99.99,0.000000,,2013-03-29 13:12:00,
2013-03-29 07:22:00,55.0,15.0,30.21,WSW,256,11.0,14.0,20,-99.99,,,-99.99,0.000000,,2013-03-29 13:22:00,
2013-03-29 07:32:00,56.0,15.0,30.22,West,276,10.0,13.0,19,-99.99,,,-99.99,1.390000,,2013-03-29 13:32:00,
2013-03-29 07:42:00,56.0,15.0,30.22,West,281,11.0,13.0,19,-99.99,,,-99.99,10.460000,,2013-03-29 13:42:00,
2013-03-29 07:53:00,56.0,15.0,30.22,West,281,11.0,13.0,19,-99.99,,,-99.99,10.460000,,2013-03-29 13:53:00,
2013-03-29 08:02:00,55.0,15.0,30.23,West,280,9.0,12.0,19,-99.99,,,-99.99,19.530001,,2013-03-29 14:02:00,
2013-03-29 08:12:00,56.0,15.0,30.23,West,274,9.0,12.0,19,-99.99,,,-99.99,49.509998,,2013-03-29 14:12:00,
2013-03-29 08:22:00,56.0,15.0,30.23,West,274,9.0,12.0,19,-99.99,,,-99.99,49.509998,,2013-03-29 14:22:00,
2013-03-29 08:32:00,56.0,15.0,30.24,West,269,10.0,13.0,19,-99.99,,,-99.99,66.940002,,2013-03-29 14:32:00,
2013-03-29 08:42:00,57.0,15.0,30.24,West,263,12.0,15.0,19,-99.99,,,-99.99,94.839996,,2013-03-29 14:42:00,
2013-03-29 08:53:00,57.0,15.0,30.24,West,263,12.0,15.0,19,-99.99,,,-99.99,94.839996,,2013-03-29 14:53:00,
2013-03-29 09:02:00,58.0,16.0,30.24,West,273,13.0,16.0,18,-99.99,,,-99.99,107.389999,,2013-03-29 15:02:00,
2013-03-29 09:12:00,58.0,16.0,30.23,West,271,13.0,15.0,18,-99.99,,,-99.99,139.470001,,2013-03-29 15:12:00,
2013-03-29 09:22:00,58.0,16.0,30.23,West,271,13.0,15.0,18,-99.99,,,-99.99,139.470001,,2013-03-29 15:22:00,
2013-03-29 09:33:00,58.0,16.0,30.23,West,271,13.0,15.0,18,-99.99,,,-99.99,139.470001,,2013-03-29 15:33:00,
2013-03-29 09:43:00,59.0,16.0,30.23,West,277,14.0,17.0,18,-99.99,,,-99.99,185.490005,,2013-03-29 15:43:00,
2013-03-29 09:53:00,59.0,16.0,30.23,West,277,14.0,17.0,18,-99.99,,,-99.99,185.490005,,2013-03-29 15:53:00,
2013-03-29 10:03:00,60.0,15.0,30.23,WNW,286,15.0,20.0,16,-99.99,,,-99.99,345.880005,,2013-03-29 16:03:00,
2013-03-29 10:13:00,64.0,14.0,30.23,NW,311,9.0,18.0,14,-99.99,,,-99.99,460.940002,,2013-03-29 16:13:00,
2013-03-29 10:23:00,64.0,14.0,30.23,NW,311,9.0,18.0,14,-99.99,,,-99.99,460.940002,,2013-03-29 16:23:00,
2013-03-29 10:32:00,65.0,15.0,30.23,WNW,286,14.0,22.0,14,-99.99,,,-99.99,639.450012,,2013-03-29 16:32:00,
2013-03-29 10:42:00,64.0,15.0,30.24,West,277,16.0,21.0,14,-99.99,,,-99.99,682.690002,,2013-03-29 16:42:00,
2013-03-29 10:53:00,64.0,15.0,30.24,West,277,16.0,21.0,14,-99.99,,,-99.99,682.690002,,2013-03-29 16:53:00,
2013-03-29 11:03:00,64.0,15.0,30.23,WNW,288,14.0,19.0,14,-99.99,,,-99.99,702.210022,,2013-03-29 17:03:00,
2013-03-29 11:12:00,66.0,15.0,30.24,WNW,296,14.0,21.0,13,-99.99,,,-99.99,760.789978,,2013-03-29 17:12:00,
2013-03-29 11:22:00,66.0,15.0,30.24,WNW,296,14.0,21.0,13,-99.99,,,-99.99,760.789978,,2013-03-29 17:22:00,
2013-03-29 11:33:00,66.0,15.0,30.24,WNW,284,17.0,24.0,13,-99.99,,,-99.99,792.169983,,2013-03-29 17:33:00,
2013-03-29 11:42:00,66.0,15.0,30.24,WNW,289,16.0,21.0,13,-99.99,,,-99.99,827.729980,,2013-03-29 17:42:00,
2013-03-29 11:53:00,66.0,15.0,30.24,WNW,289,16.0,21.0,13,-99.99,,,-99.99,827.729980,,2013-03-29 17:53:00,
2013-03-29 12:02:00,66.0,15.0,30.24,WNW,282,14.0,21.0,13,-99.99,,,-99.99,857.719971,,2013-03-29 18:02:00,
2013-03-29 12:12:00,66.0,15.0,30.24,WNW,288,12.0,19.0,13,-99.99,,,-99.99,883.520020,,2013-03-29 18:12:00,
2013-03-29 12:23:00,66.0,15.0,30.24,WNW,288,12.0,19.0,13,-99.99,,,-99.99,883.520020,,2013-03-29 18:23:00,
2013-03-29 12:32:00,67.0,15.0,30.24,West,275,12.0,24.0,13,-99.99,,,-99.99,910.719971,,2013-03-29 18:32:00,
2013-03-29 12:42:00,67.0,16.0,30.23,West,280,14.0,24.0,13,-99.99,,,-99.99,890.489990,,2013-03-29 18:42:00,
2013-03-29 12:52:00,67.0,16.0,30.23,West,280,14.0,24.0,13,-99.99,,,-99.99,890.489990,,2013-03-29 18:52:00,
2013-03-29 13:02:00,68.0,16.0,30.23,West,281,14.0,26.0,13,-99.99,,,-99.99,953.250000,,2013-03-29 19:02:00,
2013-03-29 13:12:00,67.0,17.0,30.22,West,260,19.0,35.0,14,-99.99,,,-99.99,960.229980,,2013-03-29 19:12:00,
2013-03-29 13:23:00,67.0,17.0,30.22,West,260,19.0,35.0,14,-99.99,,,-99.99,960.229980,,2013-03-29 19:23:00,
2013-03-29 13:32:00,67.0,17.0,30.22,West,260,19.0,35.0,14,-99.99,,,-99.99,960.229980,,2013-03-29 19:32:00,
2013-03-29 13:42:00,68.0,16.0,30.21,West,273,20.0,31.0,13,-99.99,,,-99.99,930.940002,,2013-03-29 19:42:00,
2013-03-29 13:53:00,68.0,16.0,30.21,West,273,20.0,31.0,13,-99.99,,,-99.99,930.940002,,2013-03-29 19:53:00,
2013-03-29 14:02:00,68.0,16.0,30.21,West,263,15.0,26.0,13,-99.99,,,-99.99,796.349976,,2013-03-29 20:02:00,
2013-03-29 14:12:00,69.0,16.0,30.20,West,273,18.0,26.0,13,-99.99,,,-99.99,911.409973,,2013-03-29 20:12:00,
2013-03-29 14:22:00,69.0,16.0,30.20,West,273,18.0,26.0,13,-99.99,,,-99.99,911.409973,,2013-03-29 20:22:00,
2013-03-29 14:33:00,69.0,16.0,30.20,West,273,18.0,26.0,13,-99.99,,,-99.99,911.409973,,2013-03-29 20:33:00,
2013-03-29 14:42:00,70.0,16.0,30.18,WSW,251,16.0,24.0,12,-99.99,,,-99.99,921.869995,,2013-03-29 20:42:00,
2013-03-29 14:52:00,70.0,16.0,30.18,WSW,251,16.0,24.0,12,-99.99,,,-99.99,921.869995,,2013-03-29 20:52:00,
2013-03-29 15:02:00,70.0,16.0,30.18,WSW,251,16.0,24.0,12,-99.99,,,-99.99,921.869995,,2013-03-29 21:02:00,
2013-03-29 15:12:00,71.0,16.0,30.17,West,275,17.0,31.0,12,-99.99,,,-99.99,874.460022,,2013-03-29 21:12:00,
2013-03-29 15:22:00,71.0,16.0,30.17,West,275,17.0,31.0,12,-99.99,,,-99.99,874.460022,,2013-03-29 21:22:00,
2013-03-29 15:33:00,71.0,16.0,30.17,West,275,17.0,31.0,12,-99.99,,,-99.99,874.460022,,2013-03-29 21:33:00,
2013-03-29 15:42:00,71.0,16.0,30.15,WSW,256,22.0,30.0,12,-99.99,,,-99.99,817.270020,,2013-03-29 21:42:00,
2013-03-29 15:53:00,71.0,16.0,30.15,WSW,256,22.0,30.0,12,-99.99,,,-99.99,817.270020,,2013-03-29 21:53:00,
2013-03-29 16:03:00,70.0,16.0,30.15,WSW,239,16.0,27.0,12,-99.99,,,-99.99,786.590027,,2013-03-29 22:03:00,
2013-03-29 16:12:00,71.0,16.0,30.15,WSW,253,18.0,31.0,12,-99.99,,,-99.99,745.450012,,2013-03-29 22:12:00,
2013-03-29 16:22:00,71.0,16.0,30.15,WSW,253,18.0,31.0,12,-99.99,,,-99.99,745.450012,,2013-03-29 22:22:00,
2013-03-29 16:33:00,71.0,16.0,30.15,WSW,253,18.0,31.0,12,-99.99,,,-99.99,745.450012,,2013-03-29 22:33:00,
2013-03-29 16:42:00,71.0,16.0,30.15,WSW,253,18.0,31.0,12,-99.99,,,-99.99,745.450012,,2013-03-29 22:42:00,
2013-03-29 17:03:00,72.0,16.0,30.14,WSW,253,19.0,27.0,11,-99.99,,,-99.99,601.099976,,2013-03-29 23:03:00,
2013-03-29 17:12:00,71.0,16.0,30.13,WSW,253,20.0,32.0,11,-99.99,,,-99.99,548.799988,,2013-03-29 23:12:00,
2013-03-29 17:22:00,71.0,16.0,30.13,WSW,253,20.0,32.0,11,-99.99,,,-99.99,548.799988,,2013-03-29 23:22:00,
2013-03-29 17:32:00,72.0,16.0,30.13,West,271,19.0,37.0,11,-99.99,,,-99.99,568.330017,,2013-03-29 23:32:00,
2013-03-29 17:42:00,72.0,14.0,30.11,WSW,258,28.0,44.0,10,-99.99,,,-99.99,428.160004,,2013-03-29 23:42:00,
2013-03-29 17:52:00,72.0,14.0,30.11,WSW,258,28.0,44.0,10,-99.99,,,-99.99,428.160004,,2013-03-29 23:52:00,
2013-03-29 18:03:00,72.0,14.0,30.11,WSW,258,28.0,44.0,10,-99.99,,,-99.99,428.160004,,2013-03-30 00:03:00,
2013-03-29 18:12:00,71.0,14.0,30.10,WSW,252,28.0,45.0,11,-99.99,,,-99.99,345.179993,,2013-03-30 00:12:00,
2013-03-29 18:22:00,71.0,14.0,30.10,WSW,252,28.0,45.0,11,-99.99,,,-99.99,345.179993,,2013-03-30 00:22:00,
2013-03-29 18:32:00,71.0,14.0,30.11,WSW,258,29.0,39.0,10,-99.99,,,-99.99,163.179993,,2013-03-30 00:32:00,
2013-03-29 18:42:00,71.0,14.0,30.10,WSW,252,31.0,43.0,10,-99.99,,,-99.99,148.529999,,2013-03-30 00:42:00,
2013-03-29 18:53:00,71.0,14.0,30.10,WSW,252,31.0,43.0,10,-99.99,,,-99.99,148.529999,,2013-03-30 00:53:00,
2013-03-29 19:02:00,71.0,13.0,30.10,WSW,255,30.0,41.0,10,-99.99,,,-99.99,177.820007,,2013-03-30 01:02:00,
2013-03-29 19:12:00,70.0,13.0,30.10,WSW,254,33.0,41.0,10,-99.99,,,-99.99,57.180000,,2013-03-30 01:12:00,
2013-03-29 19:22:00,70.0,13.0,30.10,WSW,254,33.0,41.0,10,-99.99,,,-99.99,57.180000,,2013-03-30 01:22:00,
2013-03-29 19:32:00,69.0,12.0,30.11,WSW,256,31.0,41.0,10,-99.99,,,-99.99,32.770000,,2013-03-30 01:32:00,
2013-03-29 19:43:00,68.0,11.0,30.11,WSW,251,31.0,41.0,10,-99.99,,,-99.99,13.950000,,2013-03-30 01:43:00,
2013-03-29 19:53:00,68.0,11.0,30.11,WSW,251,31.0,41.0,10,-99.99,,,-99.99,13.950000,,2013-03-30 01:53:00,
2013-03-29 20:02:00,68.0,11.0,30.11,WSW,251,31.0,41.0,10,-99.99,,,-99.99,13.950000,,2013-03-30 02:02:00,
2013-03-29 20:12:00,66.0,10.0,30.12,WSW,253,29.0,35.0,10,-99.99,,,-99.99,0.700000,,2013-03-30 02:12:00,
2013-03-29 20:22:00,66.0,10.0,30.12,WSW,253,29.0,35.0,10,-99.99,,,-99.99,0.700000,,2013-03-30 02:22:00,
2013-03-29 20:32:00,66.0,10.0,30.13,WSW,249,27.0,35.0,11,-99.99,,,-99.99,0.000000,,2013-03-30 02:32:00,
2013-03-29 20:42:00,66.0,10.0,30.13,WSW,249,27.0,36.0,10,-99.99,,,-99.99,0.000000,,2013-03-30 02:42:00,
2013-03-29 20:53:00,66.0,10.0,30.13,WSW,249,27.0,36.0,10,-99.99,,,-99.99,0.000000,,2013-03-30 02:53:00,
2013-03-29 21:02:00,66.0,10.0,30.13,WSW,246,26.0,33.0,11,-99.99,,,-99.99,0.000000,,2013-03-30 03:02:00,
2013-03-29 21:12:00,66.0,11.0,30.14,WSW,246,26.0,33.0,11,-99.99,,,-99.99,0.000000,,2013-03-30 03:12:00,
2013-03-29 21:22:00,66.0,11.0,30.14,WSW,246,26.0,33.0,11,-99.99,,,-99.99,0.000000,,2013-03-30 03:22:00,
2013-03-29 21:33:00,65.0,11.0,30.15,WSW,249,23.0,30.0,11,-99.99,,,-99.99,0.000000,,2013-03-30 03:33:00,
2013-03-29 21:43:00,64.0,10.0,30.16,WSW,253,23.0,30.0,11,-99.99,,,-99.99,0.000000,,2013-03-30 03:43:00,
2013-03-29 21:53:00,64.0,10.0,30.16,WSW,253,23.0,30.0,11,-99.99,,,-99.99,0.000000,,2013-03-30 03:53:00,
2013-03-29 22:02:00,64.0,10.0,30.17,West,260,21.0,26.0,11,-99.99,,,-99.99,0.000000,,2013-03-30 04:02:00,
2013-03-29 22:12:00,62.0,10.0,30.17,West,263,18.0,23.0,12,-99.99,,,-99.99,0.000000,,2013-03-30 04:12:00,
2013-03-29 22:23:00,62.0,10.0,30.17,West,263,18.0,23.0,12,-99.99,,,-99.99,0.000000,,2013-03-30 04:23:00,
2013-03-29 22:32:00,62.0,9.0,30.18,West,267,17.0,22.0,12,-99.99,,,-99.99,0.000000,,2013-03-30 04:32:00,
2013-03-29 22:43:00,62.0,9.0,30.19,West,273,15.0,20.0,12,-99.99,,,-99.99,0.000000,,2013-03-30 04:43:00,
2013-03-29 22:53:00,62.0,9.0,30.19,West,273,15.0,20.0,12,-99.99,,,-99.99,0.000000,,2013-03-30 04:53:00,
2013-03-29 23:02:00,62.0,9.0,30.19,West,278,15.0,20.0,12,-99.99,,,-99.99,0.000000,,2013-03-30 05:02:00,
2013-03-29 23:12:00,61.0,9.0,30.20,West,281,16.0,19.0,12,-99.99,,,-99.99,0.000000,,2013-03-30 05:12:00,
2013-03-29 23:22:00,61.0,9.0,30.20,West,281,16.0,19.0,12,-99.99,,,-99.99,0.000000,,2013-03-30 05:22:00,
2013-03-29 23:32:00,61.0,9.0,30.20,West,280,16.0,22.0,12,-99.99,,,-99.99,0.000000,,2013-03-30 05:32:00,
2013-03-29 23:42:00,61.0,9.0,30.20,West,281,16.0,19.0,12,-99.99,,,-99.99,0.000000,,2013-03-30 05:42:00,
2013-03-29 23:52:00,61.0,9.0,30.20,West,281,16.0,19.0,12,-99.99,,,-99.99,0.000000,,2013-03-30 05:52:00,